#datetime,building,power
2022-03-17T00:00:00,pth,2.40
2022-03-17T00:02:00,pth,2.40
2022-03-17T00:04:00,pth,2.40
2022-03-17T00:05:00,pth,1.20
2022-03-17T00:07:00,pth,2.40
2022-03-17T00:09:00,pth,3.60
2022-03-17T00:10:00,pth,1.20
2022-03-17T00:12:00,pth,3.60
2022-03-17T00:14:00,pth,2.40
2022-03-17T00:16:00,pth,3.60
2022-03-17T00:17:00,pth,1.20
2022-03-17T00:19:00,pth,3.60
2022-03-17T00:21:00,pth,3.60
2022-03-17T00:23:00,pth,2.40
2022-03-17T00:25:00,pth,3.60
2022-03-17T00:27:00,pth,2.40
2022-03-17T00:29:00,pth,2.40
2022-03-17T00:31:00,pth,3.60
2022-03-17T00:33:00,pth,2.40
2022-03-17T00:35:00,pth,2.40
2022-03-17T00:37:00,pth,2.40
2022-03-17T00:39:00,pth,2.40
2022-03-17T00:40:00,pth,1.20
2022-03-17T00:42:00,pth,2.40
2022-03-17T00:44:00,pth,2.40
2022-03-17T00:46:00,pth,3.60
2022-03-17T00:47:00,pth,1.20
2022-03-17T00:49:00,pth,2.40
2022-03-17T00:50:00,pth,1.20
2022-03-17T00:52:00,pth,2.40
2022-03-17T00:54:00,pth,2.40
2022-03-17T00:55:00,pth,1.20
2022-03-17T00:57:00,pth,3.60
2022-03-17T00:59:00,pth,2.40
2022-03-17T01:01:00,pth,2.40
2022-03-17T01:03:00,pth,2.40
2022-03-17T01:04:00,pth,1.20
2022-03-17T01:06:00,pth,2.40
2022-03-17T01:08:00,pth,2.40
2022-03-17T01:10:00,pth,2.40
2022-03-17T01:11:00,pth,1.20
2022-03-17T01:12:00,pth,1.20
2022-03-17T01:14:00,pth,2.40
2022-03-17T01:15:00,pth,1.20
2022-03-17T01:17:00,pth,3.60
2022-03-17T01:18:00,pth,1.20
2022-03-17T01:19:00,pth,1.20
2022-03-17T01:21:00,pth,2.40
2022-03-17T01:23:00,pth,2.40
2022-03-17T01:24:00,pth,2.40
2022-03-17T01:26:00,pth,2.40
2022-03-17T01:27:00,pth,1.20
2022-03-17T01:28:00,pth,1.20
2022-03-17T01:30:00,pth,2.40
2022-03-17T01:31:00,pth,2.40
2022-03-17T01:33:00,pth,2.40
2022-03-17T01:35:00,pth,2.40
2022-03-17T01:37:00,pth,2.40
2022-03-17T01:39:00,pth,3.60
2022-03-17T01:40:00,pth,1.20
2022-03-17T01:42:00,pth,2.40
2022-03-17T01:44:00,pth,2.40
2022-03-17T01:46:00,pth,3.60
2022-03-17T01:48:00,pth,2.40
2022-03-17T01:49:00,pth,1.20
2022-03-17T01:51:00,pth,2.40
2022-03-17T01:53:00,pth,2.40
2022-03-17T01:55:00,pth,1.20
2022-03-17T01:57:00,pth,2.40
2022-03-17T01:59:00,pth,2.40
2022-03-17T02:01:00,pth,2.40
2022-03-17T02:03:00,pth,2.40
2022-03-17T02:05:00,pth,3.60
2022-03-17T02:06:00,pth,1.20
2022-03-17T02:08:00,pth,2.40
2022-03-17T02:09:00,pth,1.20
2022-03-17T02:12:00,pth,3.60
2022-03-17T02:13:00,pth,1.20
2022-03-17T02:15:00,pth,2.40
2022-03-17T02:16:00,pth,1.20
2022-03-17T02:18:00,pth,2.40
2022-03-17T02:20:00,pth,2.40
2022-03-17T02:21:00,pth,1.20
2022-03-17T02:24:00,pth,2.40
2022-03-17T02:26:00,pth,2.40
2022-03-17T02:27:00,pth,1.20
2022-03-17T02:29:00,pth,2.40
2022-03-17T02:31:00,pth,2.40
2022-03-17T02:33:00,pth,2.40
2022-03-17T02:35:00,pth,2.40
2022-03-17T02:37:00,pth,2.40
2022-03-17T02:39:00,pth,1.20
2022-03-17T02:41:00,pth,2.40
2022-03-17T02:43:00,pth,2.40
2022-03-17T02:45:00,pth,2.40
2022-03-17T02:47:00,pth,2.40
2022-03-17T02:48:00,pth,1.20
2022-03-17T02:50:00,pth,2.40
2022-03-17T02:52:00,pth,2.40
2022-03-17T02:54:00,pth,2.40
2022-03-17T02:56:00,pth,2.40
2022-03-17T02:57:00,pth,1.20
2022-03-17T02:58:00,pth,1.20
2022-03-17T03:00:00,pth,2.40
2022-03-17T03:01:00,pth,1.20
2022-03-17T03:02:00,pth,1.20
2022-03-17T03:04:00,pth,2.40
2022-03-17T03:05:00,pth,1.20
2022-03-17T03:07:00,pth,2.40
2022-03-17T03:09:00,pth,2.40
2022-03-17T03:11:00,pth,3.60
2022-03-17T03:13:00,pth,2.40
2022-03-17T03:15:00,pth,2.40
2022-03-17T03:17:00,pth,2.40
2022-03-17T03:18:00,pth,1.20
2022-03-17T03:19:00,pth,2.40
2022-03-17T03:21:00,pth,2.40
2022-03-17T03:22:00,pth,1.20
2022-03-17T03:24:00,pth,2.40
2022-03-17T03:25:00,pth,1.20
2022-03-17T03:26:00,pth,1.20
2022-03-17T03:28:00,pth,2.40
2022-03-17T03:30:00,pth,2.40
2022-03-17T03:31:00,pth,1.20
2022-03-17T03:32:00,pth,1.20
2022-03-17T03:34:00,pth,2.40
2022-03-17T03:36:00,pth,2.40
2022-03-17T03:37:00,pth,1.20
2022-03-17T03:39:00,pth,2.40
2022-03-17T03:40:00,pth,1.20
2022-03-17T03:42:00,pth,2.40
2022-03-17T03:43:00,pth,1.20
2022-03-17T03:45:00,pth,1.20
2022-03-17T03:47:00,pth,2.40
2022-03-17T03:48:00,pth,1.20
2022-03-17T03:50:00,pth,2.40
2022-03-17T03:52:00,pth,2.40
2022-03-17T03:54:00,pth,2.40
2022-03-17T03:56:00,pth,2.40
2022-03-17T03:57:00,pth,1.20
2022-03-17T03:59:00,pth,2.40
2022-03-17T04:01:00,pth,2.40
2022-03-17T04:03:00,pth,2.40
2022-03-17T04:05:00,pth,2.40
2022-03-17T04:06:00,pth,1.20
2022-03-17T04:08:00,pth,2.40
2022-03-17T04:09:00,pth,1.20
2022-03-17T04:11:00,pth,2.40
2022-03-17T04:13:00,pth,2.40
2022-03-17T04:15:00,pth,1.20
2022-03-17T04:17:00,pth,2.40
2022-03-17T04:19:00,pth,2.40
2022-03-17T04:21:00,pth,2.40
2022-03-17T04:23:00,pth,2.40
2022-03-17T04:25:00,pth,2.40
2022-03-17T04:26:00,pth,1.20
2022-03-17T04:28:00,pth,1.20
2022-03-17T04:30:00,pth,2.40
2022-03-17T04:32:00,pth,2.40
2022-03-17T04:34:00,pth,2.40
2022-03-17T04:35:00,pth,1.20
2022-03-17T04:37:00,pth,3.60
2022-03-17T04:39:00,pth,2.40
2022-03-17T04:40:00,pth,1.20
2022-03-17T04:42:00,pth,2.40
2022-03-17T04:44:00,pth,2.40
2022-03-17T04:46:00,pth,2.40
2022-03-17T04:47:00,pth,1.20
2022-03-17T04:49:00,pth,2.40
2022-03-17T04:51:00,pth,2.40
2022-03-17T04:52:00,pth,2.40
2022-03-17T04:54:00,pth,2.40
2022-03-17T04:56:00,pth,2.40
2022-03-17T04:58:00,pth,2.40
2022-03-17T05:00:00,pth,2.40
2022-03-17T05:02:00,pth,1.20
2022-03-17T05:04:00,pth,2.40
2022-03-17T05:06:00,pth,2.40
2022-03-17T05:07:00,pth,1.20
2022-03-17T05:09:00,pth,2.40
2022-03-17T05:11:00,pth,2.40
2022-03-17T05:13:00,pth,2.40
2022-03-17T05:14:00,pth,1.20
2022-03-17T05:16:00,pth,2.40
2022-03-17T05:18:00,pth,2.40
2022-03-17T05:21:00,pth,2.40
2022-03-17T05:22:00,pth,1.20
2022-03-17T05:24:00,pth,2.40
2022-03-17T05:25:00,pth,1.20
2022-03-17T05:27:00,pth,2.40
2022-03-17T05:29:00,pth,1.20
2022-03-17T05:31:00,pth,2.40
2022-03-17T05:33:00,pth,2.40
2022-03-17T05:34:00,pth,1.20
2022-03-17T05:35:00,pth,1.20
2022-03-17T05:37:00,pth,1.20
2022-03-17T05:39:00,pth,2.40
2022-03-17T05:40:00,pth,1.20
2022-03-17T05:42:00,pth,2.40
2022-03-17T05:44:00,pth,2.40
2022-03-17T05:46:00,pth,2.40
2022-03-17T05:48:00,pth,2.40
2022-03-17T05:50:00,pth,2.40
2022-03-17T05:52:00,pth,2.40
2022-03-17T05:54:00,pth,2.40
2022-03-17T05:56:00,pth,2.40
2022-03-17T05:58:00,pth,2.40
2022-03-17T06:00:00,pth,1.20
2022-03-17T06:02:00,pth,2.40
2022-03-17T06:04:00,pth,2.40
2022-03-17T06:05:00,pth,1.20
2022-03-17T06:07:00,pth,2.40
2022-03-17T06:08:00,pth,1.20
2022-03-17T06:10:00,pth,2.40
2022-03-17T06:12:00,pth,2.40
2022-03-17T06:13:00,pth,1.20
2022-03-17T06:15:00,pth,2.40
2022-03-17T06:17:00,pth,2.40
2022-03-17T06:19:00,pth,2.40
2022-03-17T06:20:00,pth,2.40
2022-03-17T06:22:00,pth,2.40
2022-03-17T06:24:00,pth,2.40
2022-03-17T06:26:00,pth,2.40
2022-03-17T06:28:00,pth,2.40
2022-03-17T06:30:00,pth,2.40
2022-03-17T06:31:00,pth,1.20
2022-03-17T06:33:00,pth,3.60
2022-03-17T06:34:00,pth,1.20
2022-03-17T06:36:00,pth,2.40
2022-03-17T06:38:00,pth,2.40
2022-03-17T06:40:00,pth,2.40
2022-03-17T06:42:00,pth,2.40
2022-03-17T06:44:00,pth,2.40
2022-03-17T06:46:00,pth,2.40
2022-03-17T06:48:00,pth,2.40
2022-03-17T06:50:00,pth,2.40
2022-03-17T06:52:00,pth,2.40
2022-03-17T06:54:00,pth,2.40
2022-03-17T06:56:00,pth,2.40
2022-03-17T06:59:00,pth,2.40
2022-03-17T07:01:00,pth,2.40
2022-03-17T07:03:00,pth,2.40
2022-03-17T07:05:00,pth,2.40
2022-03-17T07:06:00,pth,1.20
2022-03-17T07:08:00,pth,2.40
2022-03-17T07:09:00,pth,1.20
2022-03-17T07:10:00,pth,1.20
2022-03-17T07:12:00,pth,3.60
2022-03-17T07:14:00,pth,2.40
2022-03-17T07:16:00,pth,2.40
2022-03-17T07:18:00,pth,2.40
2022-03-17T07:19:00,pth,1.20
2022-03-17T07:21:00,pth,2.40
2022-03-17T07:22:00,pth,1.20
2022-03-17T07:24:00,pth,2.40
2022-03-17T07:26:00,pth,2.40
2022-03-17T07:28:00,pth,2.40
2022-03-17T07:30:00,pth,2.40
2022-03-17T07:32:00,pth,1.20
2022-03-17T07:34:00,pth,2.40
2022-03-17T07:35:00,pth,1.20
2022-03-17T07:37:00,pth,1.20
2022-03-17T07:39:00,pth,2.40
2022-03-17T07:41:00,pth,1.20
2022-03-17T07:43:00,pth,2.40
2022-03-17T07:45:00,pth,1.20
2022-03-17T07:47:00,pth,2.40
2022-03-17T07:49:00,pth,2.40
2022-03-17T07:51:00,pth,1.20
2022-03-17T07:53:00,pth,2.40
2022-03-17T07:56:00,pth,2.40
2022-03-17T07:58:00,pth,1.20
2022-03-17T08:00:00,pth,2.40
2022-03-17T08:02:00,pth,1.20
2022-03-17T08:04:00,pth,2.40
2022-03-17T08:06:00,pth,1.20
2022-03-17T08:08:00,pth,2.40
2022-03-17T08:10:00,pth,2.40
2022-03-17T08:13:00,pth,2.40
2022-03-17T08:15:00,pth,1.20
2022-03-17T08:16:00,pth,1.20
2022-03-17T08:18:00,pth,1.20
2022-03-17T08:20:00,pth,2.40
2022-03-17T08:23:00,pth,2.40
2022-03-17T08:24:00,pth,1.20
2022-03-17T08:26:00,pth,1.20
2022-03-17T08:28:00,pth,1.20
2022-03-17T08:30:00,pth,2.40
2022-03-17T08:33:00,pth,1.20
2022-03-17T08:35:00,pth,2.40
2022-03-17T08:37:00,pth,1.20
2022-03-17T08:39:00,pth,2.40
2022-03-17T08:40:00,pth,1.20
2022-03-17T08:42:00,pth,1.20
2022-03-17T08:44:00,pth,2.40
2022-03-17T08:46:00,pth,1.20
2022-03-17T08:48:00,pth,1.20
2022-03-17T08:50:00,pth,1.20
2022-03-17T08:52:00,pth,1.20
2022-03-17T08:53:00,pth,1.20
2022-03-17T08:55:00,pth,1.20
2022-03-17T08:57:00,pth,1.20
2022-03-17T08:59:00,pth,1.20
2022-03-17T09:01:00,pth,1.20
2022-03-17T09:03:00,pth,1.20
2022-03-17T09:05:00,pth,1.20
2022-03-17T09:07:00,pth,1.20
2022-03-17T09:08:00,pth,1.20
2022-03-17T09:10:00,pth,1.20
2022-03-17T09:11:00,pth,1.20
2022-03-17T09:13:00,pth,1.20
2022-03-17T09:15:00,pth,2.40
2022-03-17T09:17:00,pth,4.80
2022-03-17T09:19:00,pth,2.40
2022-03-17T09:21:00,pth,1.20
2022-03-17T09:23:00,pth,1.20
2022-03-17T09:25:00,pth,1.20
2022-03-17T09:27:00,pth,1.20
2022-03-17T09:29:00,pth,2.40
2022-03-17T09:31:00,pth,1.20
2022-03-17T09:33:00,pth,1.20
2022-03-17T09:35:00,pth,2.40
2022-03-17T09:38:00,pth,1.20
2022-03-17T09:39:00,pth,1.20
2022-03-17T09:41:00,pth,1.20
2022-03-17T09:43:00,pth,1.20
2022-03-17T09:46:00,pth,2.40
2022-03-17T09:48:00,pth,1.20
2022-03-17T09:50:00,pth,1.20
2022-03-17T09:52:00,pth,1.20
2022-03-17T09:54:00,pth,2.40
2022-03-17T09:56:00,pth,2.40
2022-03-17T09:58:00,pth,1.20
2022-03-17T09:59:00,pth,1.20
2022-03-17T10:01:00,pth,1.20
2022-03-17T10:03:00,pth,2.40
2022-03-17T10:05:00,pth,1.20
2022-03-17T10:07:00,pth,2.40
2022-03-17T10:09:00,pth,1.20
2022-03-17T10:11:00,pth,1.20
2022-03-17T10:13:00,pth,2.40
2022-03-17T10:15:00,pth,1.20
2022-03-17T10:16:00,pth,1.20
2022-03-17T10:18:00,pth,1.20
2022-03-17T10:21:00,pth,3.60
2022-03-17T10:23:00,pth,3.60
2022-03-17T10:24:00,pth,2.40
2022-03-17T10:26:00,pth,3.60
2022-03-17T10:28:00,pth,1.20
2022-03-17T10:29:00,pth,1.20
2022-03-17T10:32:00,pth,1.20
2022-03-17T10:34:00,pth,1.20
2022-03-17T10:36:00,pth,2.40
2022-03-17T10:39:00,pth,2.40
2022-03-17T10:42:00,pth,1.20
2022-03-17T10:44:00,pth,2.40
2022-03-17T10:46:00,pth,1.20
2022-03-17T10:49:00,pth,2.40
2022-03-17T10:51:00,pth,1.20
2022-03-17T10:54:00,pth,2.40
2022-03-17T10:55:00,pth,1.20
2022-03-17T10:57:00,pth,2.40
2022-03-17T10:59:00,pth,1.20
2022-03-17T11:01:00,pth,2.40
2022-03-17T11:03:00,pth,1.20
2022-03-17T11:05:00,pth,2.40
2022-03-17T11:07:00,pth,1.20
2022-03-17T11:09:00,pth,1.20
2022-03-17T11:11:00,pth,2.40
2022-03-17T11:13:00,pth,1.20
2022-03-17T11:15:00,pth,1.20
2022-03-17T11:16:00,pth,1.20
2022-03-17T11:18:00,pth,1.20
2022-03-17T11:20:00,pth,2.40
2022-03-17T11:23:00,pth,1.20
2022-03-17T11:24:00,pth,1.20
2022-03-17T11:26:00,pth,2.40
2022-03-17T11:29:00,pth,2.40
2022-03-17T11:31:00,pth,1.20
2022-03-17T11:33:00,pth,1.20
2022-03-17T11:35:00,pth,1.20
2022-03-17T11:37:00,pth,1.20
2022-03-17T11:39:00,pth,1.20
2022-03-17T11:40:00,pth,1.20
2022-03-17T11:42:00,pth,1.20
2022-03-17T11:45:00,pth,1.20
2022-03-17T11:46:00,pth,1.20
2022-03-17T11:48:00,pth,1.20
2022-03-17T11:50:00,pth,1.20
2022-03-17T11:51:00,pth,1.20
2022-03-17T11:53:00,pth,1.20
2022-03-17T11:55:00,pth,1.20
2022-03-17T11:56:00,pth,1.20
2022-03-17T11:58:00,pth,1.20
2022-03-17T12:00:00,pth,1.20
2022-03-17T12:02:00,pth,1.20
2022-03-17T12:04:00,pth,1.20
2022-03-17T12:06:00,pth,2.40
2022-03-17T12:09:00,pth,1.20
2022-03-17T12:11:00,pth,2.40
2022-03-17T12:13:00,pth,1.20
2022-03-17T12:15:00,pth,1.20
2022-03-17T12:17:00,pth,1.20
2022-03-17T12:18:00,pth,1.20
2022-03-17T12:20:00,pth,1.20
2022-03-17T12:23:00,pth,1.20
2022-03-17T12:25:00,pth,2.40
2022-03-17T12:27:00,pth,1.20
2022-03-17T12:28:00,pth,1.20
2022-03-17T12:30:00,pth,3.60
2022-03-17T12:32:00,pth,1.20
2022-03-17T12:34:00,pth,2.40
2022-03-17T12:36:00,pth,4.80
2022-03-17T12:38:00,pth,6.00
2022-03-17T12:40:00,pth,6.00
2022-03-17T12:42:00,pth,6.00
2022-03-17T12:44:00,pth,3.60
2022-03-17T12:45:00,pth,1.20
2022-03-17T12:46:00,pth,2.40
2022-03-17T12:47:00,pth,1.20
2022-03-17T12:49:00,pth,2.40
2022-03-17T12:51:00,pth,2.40
2022-03-17T12:53:00,pth,2.40
2022-03-17T12:55:00,pth,1.20
2022-03-17T12:57:00,pth,3.60
2022-03-17T12:59:00,pth,2.40
2022-03-17T13:00:00,pth,1.20
2022-03-17T13:02:00,pth,2.40
2022-03-17T13:04:00,pth,7.20
2022-03-17T13:06:00,pth,13.20
2022-03-17T13:08:00,pth,13.20
2022-03-17T13:10:00,pth,13.20
2022-03-17T13:12:00,pth,13.20
2022-03-17T13:13:00,pth,7.20
2022-03-17T13:15:00,pth,13.20
2022-03-17T13:17:00,pth,13.20
2022-03-17T13:18:00,pth,7.20
2022-03-17T13:19:00,pth,6.00
2022-03-17T13:21:00,pth,14.40
2022-03-17T13:23:00,pth,12.00
2022-03-17T13:24:00,pth,7.20
2022-03-17T13:25:00,pth,6.00
2022-03-17T13:27:00,pth,13.20
2022-03-17T13:29:00,pth,13.20
2022-03-17T13:31:00,pth,13.20
2022-03-17T13:32:00,pth,7.20
2022-03-17T13:34:00,pth,12.00
2022-03-17T13:36:00,pth,13.20
2022-03-17T13:37:00,pth,6.00
2022-03-17T13:39:00,pth,7.20
2022-03-17T13:41:00,pth,13.20
2022-03-17T13:42:00,pth,6.00
2022-03-17T13:44:00,pth,6.00
2022-03-17T13:46:00,pth,10.80
2022-03-17T13:48:00,pth,8.40
2022-03-17T13:50:00,pth,7.20
2022-03-17T13:52:00,pth,8.40
2022-03-17T13:54:00,pth,12.00
2022-03-17T13:55:00,pth,1.20
2022-03-17T13:56:00,pth,7.20
2022-03-17T13:58:00,pth,7.20
2022-03-17T13:59:00,pth,7.20
2022-03-17T14:01:00,pth,4.80
2022-03-17T14:03:00,pth,3.60
2022-03-17T14:05:00,pth,2.40
2022-03-17T14:07:00,pth,1.20
2022-03-17T14:09:00,pth,2.40
2022-03-17T14:11:00,pth,7.20
2022-03-17T14:13:00,pth,14.40
2022-03-17T14:15:00,pth,13.20
2022-03-17T14:17:00,pth,13.20
2022-03-17T14:18:00,pth,6.00
2022-03-17T14:20:00,pth,13.20
2022-03-17T14:22:00,pth,13.20
2022-03-17T14:24:00,pth,13.20
2022-03-17T14:26:00,pth,13.20
2022-03-17T14:28:00,pth,13.20
2022-03-17T14:29:00,pth,6.00
2022-03-17T14:31:00,pth,14.40
2022-03-17T14:33:00,pth,13.20
2022-03-17T14:35:00,pth,14.40
2022-03-17T14:37:00,pth,13.20
2022-03-17T14:38:00,pth,7.20
2022-03-17T14:40:00,pth,12.00
2022-03-17T14:42:00,pth,14.40
2022-03-17T14:44:00,pth,13.20
2022-03-17T14:45:00,pth,7.20
2022-03-17T14:47:00,pth,13.20
2022-03-17T14:49:00,pth,10.80
2022-03-17T14:51:00,pth,8.40
2022-03-17T14:52:00,pth,6.00
2022-03-17T14:54:00,pth,12.00
2022-03-17T14:56:00,pth,6.00
2022-03-17T14:57:00,pth,7.20
2022-03-17T14:59:00,pth,9.60
2022-03-17T15:01:00,pth,8.40
2022-03-17T15:03:00,pth,12.00
2022-03-17T15:05:00,pth,6.00
2022-03-17T15:06:00,pth,6.00
2022-03-17T15:08:00,pth,9.60
2022-03-17T15:10:00,pth,8.40
2022-03-17T15:12:00,pth,9.60
2022-03-17T15:13:00,pth,2.40
2022-03-17T15:15:00,pth,13.20
2022-03-17T15:17:00,pth,6.00
2022-03-17T15:19:00,pth,13.20
2022-03-17T15:21:00,pth,7.20
2022-03-17T15:23:00,pth,10.80
2022-03-17T15:25:00,pth,8.40
2022-03-17T15:27:00,pth,9.60
2022-03-17T15:29:00,pth,9.60
2022-03-17T15:32:00,pth,13.20
2022-03-17T15:34:00,pth,6.00
2022-03-17T15:36:00,pth,13.20
2022-03-17T15:38:00,pth,6.00
2022-03-17T15:40:00,pth,2.40
2022-03-17T15:42:00,pth,2.40
2022-03-17T15:44:00,pth,2.40
2022-03-17T15:46:00,pth,1.20
2022-03-17T15:48:00,pth,2.40
2022-03-17T15:50:00,pth,2.40
2022-03-17T15:53:00,pth,2.40
2022-03-17T15:54:00,pth,1.20
2022-03-17T15:56:00,pth,1.20
2022-03-17T15:58:00,pth,2.40
2022-03-17T16:00:00,pth,1.20
2022-03-17T16:02:00,pth,1.20
2022-03-17T16:03:00,pth,1.20
2022-03-17T16:05:00,pth,2.40
2022-03-17T16:07:00,pth,1.20
2022-03-17T16:09:00,pth,2.40
2022-03-17T16:11:00,pth,2.40
2022-03-17T16:12:00,pth,1.20
2022-03-17T16:14:00,pth,2.40
2022-03-17T16:15:00,pth,1.20
2022-03-17T16:17:00,pth,2.40
2022-03-17T16:19:00,pth,2.40
2022-03-17T16:21:00,pth,2.40
2022-03-17T16:23:00,pth,1.20
2022-03-17T16:25:00,pth,2.40
2022-03-17T16:27:00,pth,2.40
2022-03-17T16:29:00,pth,2.40
2022-03-17T16:31:00,pth,2.40
2022-03-17T16:33:00,pth,2.40
2022-03-17T16:35:00,pth,9.60
2022-03-17T16:36:00,pth,7.20
2022-03-17T16:37:00,pth,6.00
2022-03-17T16:39:00,pth,13.20
2022-03-17T16:41:00,pth,14.40
2022-03-17T16:43:00,pth,13.20
2022-03-17T16:45:00,pth,14.40
2022-03-17T16:47:00,pth,13.20
2022-03-17T16:49:00,pth,14.40
2022-03-17T16:51:00,pth,13.20
2022-03-17T16:53:00,pth,14.40
2022-03-17T16:54:00,pth,6.00
2022-03-17T16:55:00,pth,7.20
2022-03-17T16:57:00,pth,13.20
2022-03-17T16:58:00,pth,6.00
2022-03-17T16:59:00,pth,7.20
2022-03-17T17:01:00,pth,13.20
2022-03-17T17:03:00,pth,14.40
2022-03-17T17:05:00,pth,6.00
2022-03-17T17:06:00,pth,2.40
2022-03-17T17:08:00,pth,12.00
2022-03-17T17:10:00,pth,13.20
2022-03-17T17:12:00,pth,14.40
2022-03-17T17:13:00,pth,6.00
2022-03-17T17:15:00,pth,13.20
2022-03-17T17:17:00,pth,14.40
2022-03-17T17:19:00,pth,13.20
2022-03-17T17:21:00,pth,13.20
2022-03-17T17:23:00,pth,13.20
2022-03-17T17:25:00,pth,13.20
2022-03-17T17:27:00,pth,13.20
2022-03-17T17:29:00,pth,13.20
2022-03-17T17:31:00,pth,13.20
2022-03-17T17:32:00,pth,7.20
2022-03-17T17:33:00,pth,6.00
2022-03-17T17:35:00,pth,3.60
2022-03-17T17:37:00,pth,12.00
2022-03-17T17:39:00,pth,3.60
2022-03-17T17:41:00,pth,2.40
2022-03-17T17:43:00,pth,1.20
2022-03-17T17:44:00,pth,1.20
2022-03-17T17:46:00,pth,2.40
2022-03-17T17:48:00,pth,2.40
2022-03-17T17:50:00,pth,1.20
2022-03-17T17:52:00,pth,2.40
2022-03-17T17:55:00,pth,2.40
2022-03-17T17:57:00,pth,1.20
2022-03-17T17:58:00,pth,1.20
2022-03-17T18:00:00,pth,1.20
2022-03-17T18:02:00,pth,1.20
2022-03-17T18:04:00,pth,2.40
2022-03-17T18:05:00,pth,1.20
2022-03-17T18:08:00,pth,2.40
2022-03-17T18:10:00,pth,1.20
2022-03-17T18:12:00,pth,1.20
2022-03-17T18:14:00,pth,1.20
2022-03-17T18:16:00,pth,2.40
2022-03-17T18:19:00,pth,2.40
2022-03-17T18:21:00,pth,2.40
2022-03-17T18:23:00,pth,2.40
2022-03-17T18:24:00,pth,1.20
2022-03-17T18:26:00,pth,2.40
2022-03-17T18:28:00,pth,2.40
2022-03-17T18:30:00,pth,1.20
2022-03-17T18:32:00,pth,2.40
2022-03-17T18:33:00,pth,1.20
2022-03-17T18:35:00,pth,2.40
2022-03-17T18:37:00,pth,2.40
2022-03-17T18:39:00,pth,2.40
2022-03-17T18:40:00,pth,1.20
2022-03-17T18:42:00,pth,1.20
2022-03-17T18:43:00,pth,1.20
2022-03-17T18:45:00,pth,1.20
2022-03-17T18:46:00,pth,1.20
2022-03-17T18:48:00,pth,1.20
2022-03-17T18:49:00,pth,1.20
2022-03-17T18:51:00,pth,1.20
2022-03-17T18:53:00,pth,2.40
2022-03-17T18:55:00,pth,1.20
2022-03-17T18:57:00,pth,1.20
2022-03-17T18:59:00,pth,2.40
2022-03-17T19:01:00,pth,1.20
2022-03-17T19:03:00,pth,2.40
2022-03-17T19:06:00,pth,2.40
2022-03-17T19:07:00,pth,1.20
2022-03-17T19:09:00,pth,2.40
2022-03-17T19:12:00,pth,2.40
2022-03-17T19:14:00,pth,2.40
2022-03-17T19:16:00,pth,2.40
2022-03-17T19:18:00,pth,2.40
2022-03-17T19:20:00,pth,2.40
2022-03-17T19:22:00,pth,1.20
2022-03-17T19:23:00,pth,1.20
2022-03-17T19:25:00,pth,2.40
2022-03-17T19:27:00,pth,2.40
2022-03-17T19:29:00,pth,3.60
2022-03-17T19:31:00,pth,2.40
2022-03-17T19:33:00,pth,2.40
2022-03-17T19:34:00,pth,1.20
2022-03-17T19:36:00,pth,2.40
2022-03-17T19:38:00,pth,1.20
2022-03-17T19:40:00,pth,2.40
2022-03-17T19:42:00,pth,2.40
2022-03-17T19:44:00,pth,2.40
2022-03-17T19:46:00,pth,2.40
2022-03-17T19:47:00,pth,1.20
2022-03-17T19:49:00,pth,2.40
2022-03-17T19:51:00,pth,3.60
2022-03-17T19:52:00,pth,1.20
2022-03-17T19:54:00,pth,2.40
2022-03-17T19:56:00,pth,2.40
2022-03-17T19:57:00,pth,1.20
2022-03-17T19:59:00,pth,2.40
2022-03-17T20:00:00,pth,1.20
2022-03-17T20:02:00,pth,2.40
2022-03-17T20:04:00,pth,2.40
2022-03-17T20:06:00,pth,2.40
2022-03-17T20:08:00,pth,2.40
2022-03-17T20:09:00,pth,2.40
2022-03-17T20:11:00,pth,1.20
2022-03-17T20:12:00,pth,1.20
2022-03-17T20:14:00,pth,2.40
2022-03-17T20:16:00,pth,2.40
2022-03-17T20:18:00,pth,2.40
2022-03-17T20:20:00,pth,2.40
2022-03-17T20:22:00,pth,2.40
2022-03-17T20:24:00,pth,2.40
2022-03-17T20:26:00,pth,2.40
2022-03-17T20:28:00,pth,2.40
2022-03-17T20:30:00,pth,2.40
2022-03-17T20:32:00,pth,3.60
2022-03-17T20:33:00,pth,1.20
2022-03-17T20:35:00,pth,2.40
2022-03-17T20:37:00,pth,2.40
2022-03-17T20:38:00,pth,1.20
2022-03-17T20:40:00,pth,2.40
2022-03-17T20:42:00,pth,2.40
2022-03-17T20:44:00,pth,2.40
2022-03-17T20:46:00,pth,3.60
2022-03-17T20:48:00,pth,2.40
2022-03-17T20:49:00,pth,1.20
2022-03-17T20:51:00,pth,2.40
2022-03-17T20:53:00,pth,2.40
2022-03-17T20:55:00,pth,2.40
2022-03-17T20:57:00,pth,2.40
2022-03-17T20:59:00,pth,2.40
2022-03-17T21:01:00,pth,2.40
2022-03-17T21:02:00,pth,1.20
2022-03-17T21:04:00,pth,2.40
2022-03-17T21:06:00,pth,2.40
2022-03-17T21:08:00,pth,2.40
2022-03-17T21:10:00,pth,2.40
2022-03-17T21:12:00,pth,3.60
2022-03-17T21:13:00,pth,1.20
2022-03-17T21:14:00,pth,1.20
2022-03-17T21:16:00,pth,2.40
2022-03-17T21:17:00,pth,1.20
2022-03-17T21:19:00,pth,2.40
2022-03-17T21:21:00,pth,2.40
2022-03-17T21:23:00,pth,2.40
2022-03-17T21:24:00,pth,1.20
2022-03-17T21:26:00,pth,2.40
2022-03-17T21:28:00,pth,2.40
2022-03-17T21:30:00,pth,2.40
2022-03-17T21:32:00,pth,3.60
2022-03-17T21:33:00,pth,1.20
2022-03-17T21:35:00,pth,2.40
2022-03-17T21:37:00,pth,2.40
2022-03-17T21:38:00,pth,1.20
2022-03-17T21:40:00,pth,2.40
2022-03-17T21:42:00,pth,3.60
2022-03-17T21:43:00,pth,1.20
2022-03-17T21:45:00,pth,2.40
2022-03-17T21:47:00,pth,3.60
2022-03-17T21:49:00,pth,2.40
2022-03-17T21:51:00,pth,2.40
2022-03-17T21:53:00,pth,2.40
2022-03-17T21:55:00,pth,2.40
2022-03-17T21:56:00,pth,1.20
2022-03-17T21:58:00,pth,3.60
2022-03-17T21:59:00,pth,2.40
2022-03-17T22:01:00,pth,4.80
2022-03-17T22:02:00,pth,3.60
2022-03-17T22:04:00,pth,4.80
2022-03-17T22:06:00,pth,6.00
2022-03-17T22:08:00,pth,4.80
2022-03-17T22:10:00,pth,4.80
2022-03-17T22:12:00,pth,3.60
2022-03-17T22:13:00,pth,1.20
2022-03-17T22:15:00,pth,3.60
2022-03-17T22:17:00,pth,2.40
2022-03-17T22:19:00,pth,3.60
2022-03-17T22:20:00,pth,1.20
2022-03-17T22:22:00,pth,2.40
2022-03-17T22:23:00,pth,1.20
2022-03-17T22:25:00,pth,3.60
2022-03-17T22:27:00,pth,2.40
2022-03-17T22:29:00,pth,2.40
2022-03-17T22:31:00,pth,2.40
2022-03-17T22:33:00,pth,2.40
2022-03-17T22:35:00,pth,2.40
2022-03-17T22:37:00,pth,3.60
2022-03-17T22:39:00,pth,2.40
2022-03-17T22:41:00,pth,2.40
2022-03-17T22:43:00,pth,2.40
2022-03-17T22:44:00,pth,1.20
2022-03-17T22:46:00,pth,2.40
2022-03-17T22:47:00,pth,1.20
2022-03-17T22:49:00,pth,3.60
2022-03-17T22:51:00,pth,2.40
2022-03-17T22:53:00,pth,2.40
2022-03-17T22:55:00,pth,2.40
2022-03-17T22:57:00,pth,2.40
2022-03-17T22:59:00,pth,2.40
2022-03-17T23:01:00,pth,2.40
2022-03-17T23:03:00,pth,2.40
2022-03-17T23:05:00,pth,3.60
